Location: Coopersdale
(40.3556°N, 78.9372°W)
Time: 18:52:26
(UTC+00:00)

Transit 4A - Pass Details

Date: 22 January 2021
Orbit: 866 x 978 km, 66.8° (Epoch: 25 February)

Event Time Altitude Azimuth Distance (km) Brightness Sun altitude
Rises 22:31:27 0° 147° (SSE) 3,654 10.9 -2.4°
Reaches altitude 10° 22:36:43 10° 110° (ESE) 2,724 9.9 -3.3°
Maximum altitude 22:37:52 11° 99° (E) 2,690 9.8 -3.5°
Drops below altitude 10° 22:38:59 10° 89° (E) 2,728 9.8 -3.7°
Enters shadow 22:42:15 - 64° (ENE) 3,195 10.0 -4.3°
Sets 22:44:16 0° 53° (NE) 3,677 - -4.6°
